Hourly Weather Kyundyade

Today, 25 October, Sunday

Time Temperature Precipitation Wind Pressure Humidity
00:00 -7°C° 0 mm 2 mps 755 mmHg 88%
01:00 -7°C° 0 mm 2 mps 754 mmHg 88%
02:00 -7°C° 0 mm 2 mps 754 mmHg 88%
03:00 -7°C° 0 mm 2 mps 754 mmHg 88%
04:00 -7°C° 0 mm 2 mps 754 mmHg 88%
05:00 -7°C° 0 mm 2 mps 753 mmHg 89%
06:00 -7°C° 0 mm 2 mps 753 mmHg 91%
07:00 -6°C° 0 mm 2 mps 753 mmHg 92%
08:00 -6°C° 0 mm 2 mps 753 mmHg 94%
09:00 -3°C° 0 mm 1 mps 753 mmHg 92%
10:00 -3°C° 0 mm 1 mps 753 mmHg 90%
11:00 -2°C° 0 mm 1 mps 753 mmHg 88%
12:00 -1°C° 0 mm 1 mps 753 mmHg 87%
13:00 -1°C° 0 mm 1 mps 753 mmHg 86%
14:00 -1°C° 0 mm 1 mps 754 mmHg 86%
15:00 -2°C° 0 mm 1 mps 754 mmHg 88%
16:00 -3°C° 0 mm 1 mps 754 mmHg 91%
17:00 -4°C° 0 mm 1 mps 755 mmHg 94%
18:00 -4°C° 0 mm 1 mps 755 mmHg 95%
19:00 -4°C° 0 mm 1 mps 755 mmHg 95%
20:00 -6°C° 0 mm 1 mps 755 mmHg 96%
21:00 -6°C° 0 mm 1 mps 756 mmHg 96%
22:00 -7°C° 0 mm 2 mps 756 mmHg 96%
23:00 -8°C° 0 mm 2 mps 756 mmHg 96%

Tomorrow, 26 October, Monday

Time Temperature Precipitation Wind Pressure Humidity
00:00 -8°C° 0 mm 2 mps 756 mmHg 95%
01:00 -8°C° 0 mm 2 mps 756 mmHg 94%
02:00 -9°C° 0 mm 2 mps 756 mmHg 93%
03:00 -9°C° 0 mm 2 mps 756 mmHg 91%
04:00 -9°C° 0 mm 2 mps 757 mmHg 89%
05:00 -10°C° 0 mm 2 mps 757 mmHg 88%
06:00 -10°C° 0 mm 2 mps 757 mmHg 85%
07:00 -12°C° 0 mm 2 mps 757 mmHg 83%
08:00 -12°C° 0 mm 2 mps 757 mmHg 80%
09:00 -12°C° 0 mm 2 mps 757 mmHg 77%
10:00 -10°C° 0 mm 2 mps 757 mmHg 74%
11:00 -10°C° 0 mm 2 mps 757 mmHg 71%
12:00 -10°C° 0 mm 2 mps 757 mmHg 70%
13:00 -10°C° 0 mm 2 mps 757 mmHg 68%
14:00 -9°C° 0 mm 2 mps 757 mmHg 67%
15:00 -10°C° 0 mm 2 mps 758 mmHg 69%
16:00 -10°C° 0 mm 2 mps 758 mmHg 71%
17:00 -9°C° 0 mm 1 mps 758 mmHg 73%
18:00 -10°C° 0 mm 1 mps 759 mmHg 75%
19:00 -10°C° 0 mm 1 mps 759 mmHg 76%
20:00 -10°C° 0 mm 1 mps 759 mmHg 78%
21:00 -10°C° 0 mm 1 mps 759 mmHg 79%
22:00 -11°C° 0 mm 0 mps 759 mmHg 81%
23:00 -11°C° 0 mm 0 mps 759 mmHg 82%

Day after tomorrow, 27 October, Tuesday

Time Temperature Precipitation Wind Pressure Humidity
00:00 -12°C° 0 mm 0 mps 759 mmHg 83%
01:00 -12°C° 0 mm 0 mps 759 mmHg 84%
02:00 -13°C° 0 mm 0 mps 759 mmHg 85%
03:00 -13°C° 0 mm 0 mps 759 mmHg 85%
04:00 -13°C° 0 mm 0 mps 759 mmHg 85%
05:00 -13°C° 0 mm 0 mps 759 mmHg 85%
06:00 -12°C° 0 mm 0 mps 759 mmHg 83%
07:00 -12°C° 0 mm 0 mps 759 mmHg 82%
08:00 -12°C° 0 mm 1 mps 759 mmHg 80%
09:00 -11°C° 0 mm 1 mps 759 mmHg 81%
10:00 -10°C° 0 mm 1 mps 759 mmHg 82%
11:00 -9°C° 0 mm 1 mps 759 mmHg 83%
12:00 -9°C° 0 mm 1 mps 759 mmHg 83%
13:00 -8°C° 0 mm 1 mps 759 mmHg 83%
14:00 -8°C° 0 mm 0 mps 759 mmHg 83%
15:00 -8°C° 0 mm 0 mps 759 mmHg 87%
16:00 -9°C° 0 mm 0 mps 759 mmHg 90%
17:00 -10°C° 0 mm 0 mps 759 mmHg 94%
18:00 -10°C° 0 mm 0 mps 759 mmHg 94%
19:00 -10°C° 0 mm 0 mps 759 mmHg 94%
20:00 -10°C° 0 mm 0 mps 759 mmHg 94%
21:00 -10°C° 0 mm 0 mps 759 mmHg 94%
22:00 -10°C° 0 mm 1 mps 759 mmHg 93%
23:00 -10°C° 0 mm 1 mps 760 mmHg 93%

28 October, Wednesday

Time Temperature Precipitation Wind Pressure Humidity
00:00 -10°C° 0 mm 1 mps 759 mmHg 93%
01:00 -10°C° 0 mm 1 mps 759 mmHg 94%
02:00 -12°C° 0 mm 2 mps 759 mmHg 94%
03:00 -12°C° 0.1 mm 2 mps 759 mmHg 94%
04:00 -12°C° 0.1 mm 2 mps 759 mmHg 94%
05:00 -10°C° 0.1 mm 2 mps 759 mmHg 94%
06:00 -10°C° 0.1 mm 2 mps 759 mmHg 94%
07:00 -10°C° 0.1 mm 2 mps 759 mmHg 93%
08:00 -10°C° 0.1 mm 2 mps 760 mmHg 93%
09:00 -12°C° 0.1 mm 3 mps 759 mmHg 92%
10:00 -12°C° 0.1 mm 3 mps 759 mmHg 90%
11:00 -10°C° 0.1 mm 3 mps 759 mmHg 89%
12:00 -10°C° 0.1 mm 3 mps 759 mmHg 89%
13:00 -10°C° 0.1 mm 3 mps 759 mmHg 89%
14:00 -10°C° 0.1 mm 3 mps 759 mmHg 89%
15:00 -12°C° 0.1 mm 3 mps 760 mmHg 90%
16:00 -12°C° 0.1 mm 3 mps 760 mmHg 90%
17:00 -13°C° 0.1 mm 3 mps 760 mmHg 91%
18:00 -13°C° 0.1 mm 3 mps 760 mmHg 91%
19:00 -14°C° 0.1 mm 3 mps 760 mmHg 91%
20:00 -14°C° 0.1 mm 3 mps 761 mmHg 91%
21:00 -15°C° 0 mm 3 mps 761 mmHg 91%
22:00 -15°C° 0 mm 3 mps 761 mmHg 92%
23:00 -16°C° 0 mm 3 mps 761 mmHg 92%

29 October, Thursday

Time Temperature Precipitation Wind Pressure Humidity
00:00 -17°C° 0 mm 3 mps 761 mmHg 93%
01:00 -17°C° 0 mm 3 mps 762 mmHg 93%
02:00 -18°C° 0 mm 3 mps 762 mmHg 94%
03:00 -18°C° 0 mm 3 mps 762 mmHg 94%
04:00 -18°C° 0 mm 3 mps 762 mmHg 94%
05:00 -19°C° 0 mm 3 mps 762 mmHg 94%
06:00 -19°C° 0 mm 3 mps 762 mmHg 94%
07:00 -19°C° 0 mm 3 mps 763 mmHg 94%
08:00 -19°C° 0 mm 3 mps 763 mmHg 94%
09:00 -19°C° 0 mm 3 mps 763 mmHg 91%
10:00 -18°C° 0 mm 3 mps 763 mmHg 87%
11:00 -17°C° 0 mm 3 mps 762 mmHg 84%
12:00 -17°C° 0 mm 3 mps 762 mmHg 83%
13:00 -16°C° 0 mm 3 mps 762 mmHg 82%
14:00 -16°C° 0 mm 3 mps 762 mmHg 81%
15:00 -17°C° 0 mm 3 mps 762 mmHg 85%
16:00 -17°C° 0 mm 3 mps 762 mmHg 89%
17:00 -17°C° 0 mm 2 mps 762 mmHg 93%
18:00 -18°C° 0 mm 2 mps 762 mmHg 93%
19:00 -19°C° 0 mm 3 mps 762 mmHg 94%
20:00 -19°C° 0 mm 3 mps 762 mmHg 94%
21:00 -19°C° 0 mm 2 mps 762 mmHg 94%
22:00 -19°C° 0 mm 2 mps 761 mmHg 95%
23:00 -19°C° 0 mm 2 mps 761 mmHg 95%

30 October, Friday

Time Temperature Precipitation Wind Pressure Humidity
00:00 -20°C° 0 mm 2 mps 761 mmHg 95%
01:00 -20°C° 0 mm 2 mps 761 mmHg 95%
02:00 -20°C° 0 mm 2 mps 761 mmHg 95%
03:00 -20°C° 0 mm 2 mps 761 mmHg 95%
04:00 -20°C° 0 mm 2 mps 761 mmHg 95%
05:00 -20°C° 0 mm 2 mps 761 mmHg 95%
06:00 -21°C° 0 mm 2 mps 761 mmHg 96%
07:00 -21°C° 0 mm 2 mps 760 mmHg 96%
08:00 -21°C° 0 mm 2 mps 760 mmHg 96%
09:00 -20°C° 0 mm 2 mps 760 mmHg 91%
10:00 -19°C° 0 mm 2 mps 760 mmHg 86%
11:00 -18°C° 0 mm 2 mps 760 mmHg 81%
12:00 -17°C° 0 mm 2 mps 759 mmHg 80%
13:00 -17°C° 0 mm 2 mps 759 mmHg 79%
14:00 -16°C° 0 mm 2 mps 759 mmHg 78%
15:00 -17°C° 0 mm 2 mps 759 mmHg 82%
16:00 -17°C° 0 mm 2 mps 758 mmHg 86%
17:00 -18°C° 0 mm 2 mps 758 mmHg 90%
18:00 -18°C° 0 mm 2 mps 758 mmHg 89%
19:00 -18°C° 0 mm 2 mps 758 mmHg 89%
20:00 -18°C° 0 mm 2 mps 758 mmHg 89%
21:00 -18°C° 0 mm 2 mps 758 mmHg 89%
22:00 -18°C° 0 mm 2 mps 758 mmHg 88%
23:00 -18°C° 0 mm 2 mps 757 mmHg 88%
Show more

We Need Your Consent

Meteoprog and our Service Providers may store and access personal data such as cookies, device identifiers or other similar technologies on your device and process such data to personalise content and ads, as well as provide social media features and to analyse the traffic.

  • Store and/or access information on your device

    Cookies, device identifiers or other information can be stored or accessed on your device for the purposes indicated above.

  • Personalised ads and content, ad and content measurement, audience insights, and products development

    Ads and content can be personalised based on a profile. More data can be added to better personalise ads and content. Ad and content performance can be measured. Insights about the audience who saw the ads and content can be derived. Such data can be used to develop or improve user’s experience, systems and software.

By clicking ‘I Agree’ you will allow the use of indicated cookies, device identifiers, web beacons or other similar technologies. Your settings can be changed in the browser on your device.

For certain purposes, legitimate interests may be relied on, rather than consent. You can read more about this in our Privacy and Cookie Policy.